| time (UTC) | temp F | wind direction | speed knots | gust knots | rain 1hr in | rain 24hr in | rain mn in | humidity % | barometer mb |
| 20260505055423 | 56 | 199 | 1.7 | 1.7 | 0.00 | 0.00 | 0.00 | 66 | 1009.6 |
| 20260505054920 | 56 | 200 | 1.7 | 1.7 | 0.00 | 0.00 | 0.00 | 66 | 1009.6 |
| 20260505054417 | 56 | 195 | 1.7 | 1.7 | 0.00 | 0.00 | 0.00 | 66 | 1009.5 |
| 20260505053916 | 57 | 193 | 1.7 | 1.7 | 0.00 | 0.00 | 0.00 | 65 | 1009.6 |
| 20260505053412 | 57 | 218 | 2.6 | 2.6 | 0.00 | 0.00 | 0.00 | 65 | 1009.6 |
| 20260505052909 | 57 | 182 | 1.7 | 1.7 | 0.00 | 0.00 | 0.00 | 64 | 1009.5 |
| 20260505052406 | 57 | 210 | 0.9 | 1.7 | 0.00 | 0.00 | 0.00 | 64 | 1009.2 |
| 20260505051903 | 57 | 172 | 1.7 | 2.6 | 0.00 | 0.00 | 0.00 | 64 | 1009.5 |
| 20260505051400 | 57 | 194 | 2.6 | 2.6 | 0.00 | 0.00 | 0.00 | 63 | 1009.6 |
| 20260505050858 | 57 | 205 | 1.7 | 2.6 | 0.00 | 0.00 | 0.00 | 64 | 1009.5 |
| 20260505050357 | 57 | 187 | 2.6 | 2.6 | 0.00 | 0.00 | 0.00 | 63 | 1009.7 |
| 20260505041324 | 58 | 192 | 1.7 | 1.7 | 0.00 | 0.00 | 0.00 | 59 | 1009.6 |
| 20260505040821 | 58 | 192 | 2.6 | 2.6 | 0.00 | 0.00 | 0.00 | 59 | 1009.6 |
| 20260505040319 | 58 | 196 | 2.6 | 2.6 | 0.00 | 0.00 | 0.00 | 59 | 1009.5 |
| 20260505035815 | 58 | 179 | 2.6 | 2.6 | 0.00 | 0.00 | 0.00 | 58 | 1009.4 |
| 20260505035311 | 58 | 195 | 2.6 | 2.6 | 0.00 | 0.00 | 0.00 | 58 | 1009.7 |
| 20260505034808 | 58 | 192 | 2.6 | 2.6 | 0.00 | 0.00 | 0.00 | 58 | 1009.6 |
| 20260505034305 | 59 | 201 | 2.6 | 2.6 | 0.00 | 0.00 | 0.00 | 57 | 1009.5 |
| 20260505033802 | 59 | 206 | 1.7 | 1.7 | 0.00 | 0.00 | 0.00 | 57 | 1009.6 |
| 20260505033259 | 59 | 204 | 2.6 | 2.6 | 0.00 | 0.00 | 0.00 | 56 | 1009.3 |
| 20260505032757 | 59 | 178 | 3.5 | 4.3 | 0.00 | 0.00 | 0.00 | 56 | 1009.3 |
| 20260505032253 | 59 | 192 | 2.6 | 2.6 | 0.00 | 0.00 | 0.00 | 56 | 1009.2 |
| 20260505031750 | 59 | 207 | 2.6 | 2.6 | 0.00 | 0.00 | 0.00 | 55 | 1009.3 |
| 20260505031246 | 59 | 201 | 2.6 | 2.6 | 0.00 | 0.00 | 0.00 | 55 | 1009.5 |
| 20260505030744 | 59 | 232 | 1.7 | 2.6 | 0.00 | 0.00 | 0.00 | 55 | 1009.4 |
| 20260505030240 | 59 | 189 | 1.7 | 1.7 | 0.00 | 0.00 | 0.00 | 54 | 1009.5 |
| 20260505025735 | 60 | 237 | 0.9 | 1.7 | 0.00 | 0.00 | 0.00 | 54 | 1009.3 |
| 20260505025234 | 60 | 184 | 1.7 | 2.6 | 0.00 | 0.00 | 0.00 | 53 | 1009.4 |
| 20260505024732 | 60 | 197 | 1.7 | 2.6 | 0.00 | 0.00 | 0.00 | 53 | 1009.5 |
| 20260505024229 | 60 | 184 | 2.6 | 4.3 | 0.00 | 0.00 | 0.00 | 53 | 1009.5 |
| 20260505023726 | 60 | 205 | 2.6 | 2.6 | 0.00 | 0.00 | 0.00 | 53 | 1009.5 |
| 20260505023223 | 60 | 213 | 2.6 | 2.6 | 0.00 | 0.00 | 0.00 | 52 | 1009.4 |
| 20260505022721 | 60 | 186 | 2.6 | 2.6 | 0.00 | 0.00 | 0.00 | 52 | 1009.4 |
| 20260505022217 | 60 | 159 | 3.5 | 5.2 | 0.00 | 0.00 | 0.00 | 52 | 1009.5 |
| 20260505021714 | 60 | 204 | 1.7 | 1.7 | 0.00 | 0.00 | 0.00 | 51 | 1009.4 |
| 20260505021211 | 61 | 192 | 1.7 | 1.7 | 0.00 | 0.00 | 0.00 | 51 | 1009.6 |
| 20260505020707 | 61 | 208 | 2.6 | 2.6 | 0.00 | 0.00 | 0.00 | 51 | 1009.4 |
| 20260505020202 | 61 | 206 | 1.7 | 2.6 | 0.00 | 0.00 | 0.00 | 51 | 1009.4 |
| 20260505015700 | 61 | 187 | 2.6 | 2.6 | 0.00 | 0.00 | 0.00 | 50 | 1009.5 |
| 20260505015156 | 61 | 189 | 2.6 | 2.6 | 0.00 | 0.00 | 0.00 | 50 | 1009.3 |
| 20260505014654 | 62 | 184 | 0.9 | 1.7 | 0.00 | 0.00 | 0.00 | 49 | 1009.4 |
| 20260505014150 | 62 | 241 | 0.9 | 1.7 | 0.00 | 0.00 | 0.00 | 49 | 1009.2 |
| 20260505013648 | 62 | 223 | 3.5 | 4.3 | 0.00 | 0.00 | 0.00 | 49 | 1009.2 |
| 20260505013145 | 62 | 179 | 2.6 | 2.6 | 0.00 | 0.00 | 0.00 | 49 | 1008.9 |
| 20260505012643 | 62 | 138 | 4.3 | 6.1 | 0.00 | 0.00 | 0.00 | 48 | 1008.9 |
| 20260505012139 | 62 | 170 | 4.3 | 6.1 | 0.00 | 0.00 | 0.00 | 48 | 1008.8 |
| 20260505011635 | 62 | 204 | 2.6 | 2.6 | 0.00 | 0.00 | 0.00 | 49 | 1008.9 |
| 20260505011133 | 62 | 206 | 2.6 | 2.6 | 0.00 | 0.00 | 0.00 | 50 | 1008.6 |
| 20260505010633 | 62 | 192 | 2.6 | 2.6 | 0.00 | 0.00 | 0.00 | 51 | 1008.6 |
| 20260505010130 | 62 | 182 | 2.6 | 2.6 | 0.00 | 0.00 | 0.00 | 50 | 1008.5 |
| 20260505005626 | 63 | 200 | 2.6 | 2.6 | 0.00 | 0.00 | 0.00 | 49 | 1008.4 |
| 20260505005124 | 63 | 196 | 2.6 | 4.3 | 0.00 | 0.00 | 0.00 | 47 | 1008.2 |
| 20260505004621 | 63 | 195 | 1.7 | 1.7 | 0.00 | 0.00 | 0.00 | 48 | 1008.3 |
| 20260505004117 | 64 | 185 | 3.5 | 4.3 | 0.00 | 0.00 | 0.00 | 46 | 1008.1 |
| 20260505003615 | 64 | 183 | 3.5 | 4.3 | 0.00 | 0.00 | 0.00 | 46 | 1008.1 |
| 20260505003112 | 64 | 198 | 2.6 | 2.6 | 0.00 | 0.00 | 0.00 | 46 | 1007.8 |
| 20260505002608 | 64 | 192 | 2.6 | 4.3 | 0.00 | 0.00 | 0.00 | 46 | 1007.7 |
| 20260505002107 | 65 | 200 | 2.6 | 2.6 | 0.00 | 0.00 | 0.00 | 46 | 1007.5 |
| 20260505001603 | 65 | 157 | 2.6 | 2.6 | 0.00 | 0.00 | 0.00 | 45 | 1007.6 |
| 20260505001101 | 65 | 202 | 1.7 | 1.7 | 0.00 | 0.00 | 0.00 | 45 | 1007.1 |
| 20260505000558 | 65 | 180 | 3.5 | 4.3 | 0.00 | 0.00 | 0.00 | 44 | 1007.2 |
| 20260505000055 | 65 | 193 | 3.5 | 5.2 | 0.00 | 0.00 | 0.00 | 44 | 1007.2 |
| 20260504235552 | 66 | 202 | 3.5 | 4.3 | 0.00 | 0.00 | 0.00 | 43 | 1006.8 |
| 20260504235048 | 66 | 213 | 3.5 | 4.3 | 0.00 | 0.00 | 0.00 | 41 | 1006.6 |
| 20260504234545 | 66 | 231 | 2.6 | 4.3 | 0.00 | 0.00 | 0.00 | 41 | 1006.7 |
| 20260504234043 | 67 | 167 | 1.7 | 1.7 | 0.00 | 0.00 | 0.00 | 40 | 1006.7 |
| 20260504233538 | 67 | 237 | 2.6 | 4.3 | 0.00 | 0.00 | 0.00 | 39 | 1006.5 |
| 20260504233035 | 68 | 194 | 3.5 | 4.3 | 0.00 | 0.00 | 0.00 | 38 | 1006.6 |
| 20260504232532 | 69 | 197 | 3.5 | 4.3 | 0.00 | 0.00 | 0.00 | 36 | 1006.3 |
| 20260504232030 | 69 | 198 | 0.9 | 0.9 | 0.00 | 0.00 | 0.00 | 35 | 1006.0 |
| 20260504231526 | 69 | 238 | 0.9 | 0.9 | 0.00 | 0.00 | 0.00 | 34 | 1005.7 |
| 20260504231022 | 70 | 191 | 3.5 | 4.3 | 0.00 | 0.00 | 0.00 | 33 | 1005.9 |
| 20260504230519 | 70 | 230 | 0.9 | 1.7 | 0.00 | 0.00 | 0.00 | 34 | 1005.8 |
| 20260504230018 | 70 | 237 | 0.9 | 0.9 | 0.00 | 0.00 | 0.00 | 34 | 1005.9 |
| 20260504225514 | 70 | 216 | 0.9 | 0.9 | 0.00 | 0.00 | 0.00 | 34 | 1005.7 |
| 20260504225011 | 70 | 227 | 0.9 | 0.9 | 0.00 | 0.00 | 0.00 | 33 | 1005.7 |
| 20260504224508 | 71 | 231 | 0.9 | 1.7 | 0.00 | 0.00 | 0.00 | 32 | 1005.5 |
| 20260504224005 | 70 | 191 | 3.5 | 4.3 | 0.00 | 0.00 | 0.00 | 33 | 1005.7 |
| 20260504223501 | 70 | 205 | 0.9 | 1.7 | 0.00 | 0.00 | 0.00 | 33 | 1005.5 |
| 20260504222957 | 71 | 241 | 1.7 | 1.7 | 0.00 | 0.00 | 0.00 | 32 | 1005.6 |
| 20260504222454 | 71 | 163 | 2.6 | 2.6 | 0.00 | 0.00 | 0.00 | 33 | 1005.5 |
| 20260504221952 | 71 | 233 | 2.6 | 5.2 | 0.00 | 0.00 | 0.00 | 32 | 1005.5 |
| 20260504221449 | 71 | 198 | 0.9 | 0.9 | 0.00 | 0.00 | 0.00 | 32 | 1005.6 |
| 20260504220946 | 71 | 233 | 0.9 | 1.7 | 0.00 | 0.00 | 0.00 | 31 | 1005.6 |
| 20260504220442 | 71 | 232 | 2.6 | 2.6 | 0.00 | 0.00 | 0.00 | 32 | 1005.6 |
| 20260504215939 | 72 | 192 | 3.5 | 4.3 | 0.00 | 0.00 | 0.00 | 32 | 1005.5 |
| 20260504215436 | 72 | 207 | 2.6 | 4.3 | 0.00 | 0.00 | 0.00 | 32 | 1005.5 |
| 20260504214933 | 72 | 191 | 2.6 | 2.6 | 0.00 | 0.00 | 0.00 | 31 | 1005.4 |
| 20260504214429 | 72 | 341 | 3.5 | 4.3 | 0.00 | 0.00 | 0.00 | 31 | 1005.5 |
| 20260504213926 | 72 | 175 | 5.2 | 6.1 | 0.00 | 0.00 | 0.00 | 30 | 1005.5 |
| 20260504213422 | 71 | 195 | 1.7 | 1.7 | 0.00 | 0.00 | 0.00 | 32 | 1005.4 |
| 20260504212920 | 71 | 188 | 2.6 | 4.3 | 0.00 | 0.00 | 0.00 | 31 | 1005.5 |
| 20260504212415 | 72 | 200 | 2.6 | 2.6 | 0.00 | 0.00 | 0.00 | 31 | 1005.6 |
| 20260504211913 | 72 | 227 | 1.7 | 1.7 | 0.00 | 0.00 | 0.00 | 32 | 1005.5 |
| 20260504211409 | 72 | 216 | 1.7 | 1.7 | 0.00 | 0.00 | 0.00 | 32 | 1005.5 |
| 20260504210906 | 71 | 184 | 3.5 | 4.3 | 0.00 | 0.00 | 0.00 | 31 | 1005.7 |
| 20260504210403 | 72 | 210 | 2.6 | 5.2 | 0.00 | 0.00 | 0.00 | 31 | 1005.7 |
| 20260504205900 | 72 | 206 | 0.9 | 1.7 | 0.00 | 0.00 | 0.00 | 31 | 1005.5 |
| 20260504205358 | 72 | 177 | 2.6 | 4.3 | 0.00 | 0.00 | 0.00 | 31 | 1005.4 |
| 20260504204856 | 73 | 240 | 0.9 | 0.9 | 0.00 | 0.00 | 0.00 | 30 | 1005.5 |
| 20260504204354 | 73 | 248 | 0.9 | 1.7 | 0.00 | 0.00 | 0.00 | 30 | 1005.5 |
| 20260504203854 | 72 | 223 | 0.9 | 0.9 | 0.00 | 0.00 | 0.00 | 30 | 1005.4 |
| 20260504203350 | 72 | 189 | 6.1 | 7.0 | 0.00 | 0.00 | 0.00 | 29 | 1005.6 |
| 20260504202846 | 73 | 202 | 2.6 | 4.3 | 0.00 | 0.00 | 0.00 | 29 | 1005.6 |
| 20260504202343 | 73 | 215 | 2.6 | 4.3 | 0.00 | 0.00 | 0.00 | 29 | 1005.5 |
| 20260504201839 | 72 | 256 | 2.6 | 2.6 | 0.00 | 0.00 | 0.00 | 29 | 1005.5 |
| 20260504201337 | 72 | 257 | 1.7 | 1.7 | 0.00 | 0.00 | 0.00 | 29 | 1005.7 |
| 20260504200834 | 73 | 285 | 2.6 | 4.3 | 0.00 | 0.00 | 0.00 | 28 | 1005.7 |
| 20260504200331 | 73 | 216 | 1.7 | 1.7 | 0.00 | 0.00 | 0.00 | 27 | 1005.9 |
| 20260504195827 | 71 | 179 | 3.5 | 5.2 | 0.00 | 0.00 | 0.00 | 29 | 1005.9 |
| 20260504195323 | 73 | 232 | 4.3 | 6.1 | 0.00 | 0.00 | 0.00 | 29 | 1005.8 |
| 20260504194820 | 72 | 242 | 0.9 | 1.7 | 0.00 | 0.00 | 0.00 | 30 | 1005.5 |
| 20260504194316 | 73 | 219 | 2.6 | 2.6 | 0.00 | 0.00 | 0.00 | 31 | 1005.7 |
| 20260504193812 | 73 | 201 | 0.9 | 0.9 | 0.00 | 0.00 | 0.00 | 29 | 1005.9 |
| 20260504193310 | 73 | 246 | 3.5 | 5.2 | 0.00 | 0.00 | 0.00 | 31 | 1005.8 |
| 20260504192808 | 73 | 242 | 3.5 | 5.2 | 0.00 | 0.00 | 0.00 | 29 | 1005.7 |
| 20260504192306 | 73 | 195 | 4.3 | 5.2 | 0.00 | 0.00 | 0.00 | 30 | 1005.7 |
| 20260504191804 | 72 | 207 | 2.6 | 5.2 | 0.00 | 0.00 | 0.00 | 30 | 1005.8 |
| 20260504191301 | 73 | 240 | 2.6 | 4.3 | 0.00 | 0.00 | 0.00 | 29 | 1005.9 |
| 20260504190756 | 72 | 247 | 4.3 | 4.3 | 0.00 | 0.00 | 0.00 | 29 | 1005.9 |
| 20260504190253 | 73 | 223 | 4.3 | 7.8 | 0.00 | 0.00 | 0.00 | 29 | 1006.0 |
| 20260504185749 | 73 | 194 | 1.7 | 1.7 | 0.00 | 0.00 | 0.00 | 30 | 1005.8 |
| 20260504185246 | 73 | 213 | 1.7 | 1.7 | 0.00 | 0.00 | 0.00 | 31 | 1005.9 |
| 20260504184742 | 73 | 184 | 3.5 | 6.1 | 0.00 | 0.00 | 0.00 | 29 | 1006.0 |
| 20260504184238 | 74 | 233 | 2.6 | 4.3 | 0.00 | 0.00 | 0.00 | 29 | 1006.1 |
| 20260504183734 | 73 | 242 | 0.9 | 1.7 | 0.00 | 0.00 | 0.00 | 28 | 1005.9 |
| 20260504183231 | 72 | 232 | 4.3 | 5.2 | 0.00 | 0.00 | 0.00 | 30 | 1006.2 |
| 20260504182730 | 72 | 199 | 2.6 | 2.6 | 0.00 | 0.00 | 0.00 | 30 | 1006.0 |
| 20260504182226 | 71 | 232 | 2.6 | 4.3 | 0.00 | 0.00 | 0.00 | 30 | 1006.2 |
| 20260504181724 | 71 | 235 | 7.8 | 9.6 | 0.00 | 0.00 | 0.00 | 30 | 1006.3 |
| 20260504181221 | 71 | 210 | 1.7 | 4.3 | 0.00 | 0.00 | 0.00 | 31 | 1006.2 |
| 20260504180720 | 71 | 173 | 3.5 | 5.2 | 0.00 | 0.00 | 0.00 | 32 | 1006.0 |
| 20260504180218 | 72 | 187 | 3.5 | 4.3 | 0.00 | 0.00 | 0.00 | 30 | 1006.0 |
| 20260504175716 | 72 | 192 | 2.6 | 5.2 | 0.00 | 0.00 | 0.00 | 32 | 1006.3 |
| 20260504175212 | 71 | 254 | 2.6 | 4.3 | 0.00 | 0.00 | 0.00 | 30 | 1006.4 |
| 20260504174710 | 70 | 250 | 2.6 | 4.3 | 0.00 | 0.00 | 0.00 | 31 | 1006.5 |
| 20260504174208 | 70 | 209 | 2.6 | 2.6 | 0.00 | 0.00 | 0.00 | 33 | 1006.5 |
| 20260504173704 | 69 | 235 | 2.6 | 4.3 | 0.00 | 0.00 | 0.00 | 32 | 1006.6 |
| 20260504173201 | 70 | 238 | 3.5 | 7.0 | 0.00 | 0.00 | 0.00 | 32 | 1006.8 |
| 20260504172658 | 69 | 235 | 1.7 | 4.3 | 0.00 | 0.00 | 0.00 | 32 | 1007.0 |
| 20260504172154 | 70 | 154 | 8.7 | 12.2 | 0.00 | 0.00 | 0.00 | 30 | 1006.5 |
| 20260504171650 | 69 | 328 | 2.6 | 5.2 | 0.00 | 0.00 | 0.00 | 32 | 1006.7 |
| 20260504171148 | 69 | 239 | 2.6 | 4.3 | 0.00 | 0.00 | 0.00 | 33 | 1006.4 |
| 20260504170644 | 69 | 234 | 1.7 | 2.6 | 0.00 | 0.00 | 0.00 | 33 | 1006.6 |
| 20260504170142 | 69 | 171 | 3.5 | 5.2 | 0.00 | 0.00 | 0.00 | 31 | 1006.8 |
| 20260504151021 | 66 | 200 | 5.2 | 7.0 | 0.00 | 0.00 | 0.00 | 37 | 1008.0 |
| 20260504150519 | 67 | 215 | 2.6 | 4.3 | 0.00 | 0.00 | 0.00 | 38 | 1007.8 |
| 20260504140945 | 64 | 240 | 2.6 | 2.6 | 0.00 | 0.00 | 0.00 | 39 | 1008.3 |
| 20260504140442 | 63 | 192 | 1.7 | 1.7 | 0.00 | 0.00 | 0.00 | 40 | 1008.4 |
| 20260504130406 | 60 | 193 | 1.7 | 1.7 | 0.00 | 0.00 | 0.00 | 43 | 1009.0 |
| 20260504110253 | 49 | 211 | 0.9 | 1.7 | 0.00 | 0.00 | 0.00 | 55 | 1009.8 |
| 20260504100216 | 48 | 216 | 0.0 | 0.0 | 0.00 | 0.00 | 0.00 | 57 | 1009.7 |
| 20260504090139 | 46 | 234 | 0.0 | 0.9 | 0.00 | 0.00 | 0.00 | 58 | 1009.4 |
| 20260504081609 | 46 | 220 | 0.9 | 0.9 | 0.00 | 0.00 | 0.00 | 57 | 1009.6 |
| 20260504081105 | 46 | 204 | 1.7 | 1.7 | 0.00 | 0.00 | 0.00 | 58 | 1009.7 |
| 20260504080602 | 46 | 221 | 0.9 | 1.7 | 0.00 | 0.00 | 0.00 | 57 | 1009.6 |